• In Austria
  • List of Countries
  • For 7 days
  • Water Temperature
  • Satellite Maps
  • Weather Map
  • News
  • Weather Widgets
  • user-avatar
    Login

    Hourly Weather Wyganki

    Today, 17 October, Wednesday

    Time Temperature Precipitation Wind Pressure Humidity
    00:00 +13°C° 0 mm 3 mps 755 mmHg 59%
    01:00 +14°C° 0 mm 2 mps 755 mmHg 65%
    02:00 +14°C° 0 mm 2 mps 755 mmHg 65%
    03:00 +13°C° 0 mm 2 mps 755 mmHg 66%
    04:00 +13°C° 0 mm 2 mps 754 mmHg 66%
    05:00 +13°C° 0 mm 2 mps 755 mmHg 66%
    06:00 +13°C° 0 mm 2 mps 755 mmHg 66%
    07:00 +13°C° 0 mm 2 mps 755 mmHg 65%
    08:00 +15°C° 0 mm 2 mps 755 mmHg 59%
    09:00 +17°C° 0 mm 2 mps 755 mmHg 53%
    10:00 +18°C° 0 mm 3 mps 755 mmHg 47%
    11:00 +19°C° 0 mm 3 mps 755 mmHg 44%
    12:00 +21°C° 0 mm 3 mps 754 mmHg 41%
    13:00 +22°C° 0 mm 3 mps 754 mmHg 38%
    14:00 +21°C° 0 mm 3 mps 754 mmHg 41%
    15:00 +21°C° 0 mm 2 mps 754 mmHg 44%
    16:00 +20°C° 0 mm 2 mps 754 mmHg 47%
    17:00 +19°C° 0 mm 2 mps 754 mmHg 49%
    18:00 +18°C° 0 mm 2 mps 754 mmHg 51%
    19:00 +17°C° 0 mm 2 mps 754 mmHg 53%
    20:00 +16°C° 0 mm 2 mps 754 mmHg 55%
    21:00 +16°C° 0 mm 2 mps 754 mmHg 56%
    22:00 +15°C° 0 mm 2 mps 754 mmHg 58%
    23:00 +15°C° 0.1 mm 2 mps 754 mmHg 61%

    Tomorrow, 18 October, Thursday

    Time Temperature Precipitation Wind Pressure Humidity
    00:00 +15°C° 0.1 mm 2 mps 754 mmHg 65%
    01:00 +15°C° 0.1 mm 2 mps 754 mmHg 68%
    02:00 +14°C° 0.1 mm 2 mps 754 mmHg 72%
    03:00 +14°C° 0.1 mm 2 mps 753 mmHg 75%
    04:00 +14°C° 0.1 mm 1 mps 753 mmHg 79%
    05:00 +14°C° 0 mm 1 mps 753 mmHg 79%
    06:00 +13°C° 0 mm 1 mps 753 mmHg 80%
    07:00 +13°C° 0 mm 1 mps 753 mmHg 81%
    08:00 +15°C° 0 mm 1 mps 753 mmHg 74%
    09:00 +16°C° 0 mm 1 mps 753 mmHg 67%
    10:00 +18°C° 0 mm 1 mps 753 mmHg 61%
    11:00 +18°C° 0 mm 2 mps 753 mmHg 57%
    12:00 +19°C° 0 mm 2 mps 753 mmHg 54%
    13:00 +20°C° 0 mm 2 mps 753 mmHg 50%
    14:00 +20°C° 0 mm 2 mps 753 mmHg 52%
    15:00 +19°C° 0 mm 2 mps 753 mmHg 54%
    16:00 +20°C° 0 mm 1 mps 752 mmHg 56%
    17:00 +19°C° 0 mm 1 mps 753 mmHg 60%
    18:00 +18°C° 0 mm 1 mps 753 mmHg 63%
    19:00 +15°C° 0 mm 1 mps 753 mmHg 67%
    20:00 +15°C° 0 mm 2 mps 753 mmHg 69%
    21:00 +14°C° 0 mm 2 mps 754 mmHg 71%
    22:00 +14°C° 0 mm 2 mps 754 mmHg 73%
    23:00 +13°C° 0 mm 2 mps 754 mmHg 76%

    Day after tomorrow, 19 October, Friday

    Time Temperature Precipitation Wind Pressure Humidity
    00:00 +13°C° 0 mm 2 mps 754 mmHg 79%
    01:00 +12°C° 0 mm 2 mps 754 mmHg 82%
    02:00 +12°C° 0 mm 2 mps 754 mmHg 85%
    03:00 +12°C° 0 mm 2 mps 754 mmHg 88%
    04:00 +10°C° 0 mm 2 mps 755 mmHg 91%
    05:00 +10°C° 0 mm 2 mps 755 mmHg 92%
    06:00 +10°C° 0 mm 2 mps 755 mmHg 93%
    07:00 +10°C° 0 mm 2 mps 755 mmHg 93%
    08:00 +12°C° 0 mm 2 mps 756 mmHg 89%
    09:00 +12°C° 0 mm 3 mps 756 mmHg 85%
    10:00 +13°C° 0 mm 3 mps 756 mmHg 81%
    11:00 +14°C° 0 mm 3 mps 756 mmHg 78%
    12:00 +14°C° 0 mm 3 mps 756 mmHg 76%
    13:00 +14°C° 0 mm 3 mps 756 mmHg 74%
    14:00 +14°C° 0 mm 3 mps 756 mmHg 73%
    15:00 +15°C° 0 mm 2 mps 757 mmHg 71%
    16:00 +15°C° 0 mm 2 mps 757 mmHg 70%
    17:00 +14°C° 0 mm 2 mps 757 mmHg 72%
    18:00 +13°C° 0 mm 2 mps 757 mmHg 73%
    19:00 +12°C° 0 mm 2 mps 758 mmHg 75%
    20:00 +10°C° 0 mm 2 mps 758 mmHg 74%
    21:00 +10°C° 0 mm 2 mps 758 mmHg 74%
    22:00 +9°C° 0 mm 2 mps 758 mmHg 73%
    23:00 +10°C° 0 mm 1 mps 759 mmHg 75%

    20 October, Saturday

    Time Temperature Precipitation Wind Pressure Humidity
    00:00 +9°C° 0 mm 1 mps 759 mmHg 77%
    01:00 +9°C° 0 mm 1 mps 759 mmHg 79%
    02:00 +9°C° 0 mm 1 mps 759 mmHg 80%
    03:00 +8°C° 0 mm 1 mps 759 mmHg 81%
    04:00 +7°C° 0 mm 0 mps 759 mmHg 83%
    05:00 +8°C° 0 mm 1 mps 759 mmHg 83%
    06:00 +8°C° 0 mm 1 mps 760 mmHg 83%
    07:00 +8°C° 0 mm 1 mps 760 mmHg 84%
    08:00 +9°C° 0 mm 1 mps 760 mmHg 77%
    09:00 +10°C° 0 mm 1 mps 761 mmHg 71%
    10:00 +12°C° 0 mm 2 mps 761 mmHg 65%
    11:00 +12°C° 0 mm 2 mps 761 mmHg 62%
    12:00 +13°C° 0 mm 2 mps 761 mmHg 58%
    13:00 +13°C° 0 mm 3 mps 761 mmHg 55%
    14:00 +13°C° 0 mm 3 mps 761 mmHg 57%
    15:00 +12°C° 0 mm 3 mps 761 mmHg 59%
    16:00 +12°C° 0 mm 3 mps 761 mmHg 61%
    17:00 +11°C° 0 mm 3 mps 761 mmHg 64%
    18:00 +10°C° 0 mm 3 mps 761 mmHg 67%
    19:00 +9°C° 0 mm 3 mps 762 mmHg 70%
    20:00 +8°C° 0 mm 2 mps 762 mmHg 72%
    21:00 +8°C° 0 mm 2 mps 762 mmHg 75%
    22:00 +7°C° 0 mm 2 mps 762 mmHg 77%
    23:00 +7°C° 0 mm 2 mps 762 mmHg 78%

    21 October, Sunday

    Time Temperature Precipitation Wind Pressure Humidity
    00:00 +7°C° 0 mm 2 mps 762 mmHg 80%
    01:00 +7°C° 0 mm 2 mps 762 mmHg 81%
    02:00 +7°C° 0 mm 2 mps 762 mmHg 81%
    03:00 +7°C° 0 mm 3 mps 762 mmHg 81%
    04:00 +7°C° 0 mm 3 mps 762 mmHg 80%
    05:00 +7°C° 0 mm 3 mps 762 mmHg 81%
    06:00 +7°C° 0 mm 3 mps 762 mmHg 81%
    07:00 +7°C° 0 mm 3 mps 762 mmHg 81%
    08:00 +8°C° 0 mm 3 mps 762 mmHg 78%
    09:00 +9°C° 0 mm 3 mps 762 mmHg 76%
    10:00 +10°C° 0 mm 3 mps 762 mmHg 73%
    11:00 +11°C° 0 mm 3 mps 761 mmHg 69%
    12:00 +12°C° 0 mm 3 mps 761 mmHg 66%
    13:00 +13°C° 0 mm 3 mps 761 mmHg 63%
    14:00 +12°C° 0 mm 3 mps 760 mmHg 64%
    15:00 +13°C° 0 mm 2 mps 760 mmHg 66%
    16:00 +13°C° 0 mm 2 mps 760 mmHg 67%
    17:00 +12°C° 0 mm 2 mps 760 mmHg 71%
    18:00 +10°C° 0 mm 2 mps 759 mmHg 74%
    19:00 +9°C° 0 mm 2 mps 759 mmHg 77%
    20:00 +9°C° 0 mm 2 mps 759 mmHg 78%
    21:00 +8°C° 0 mm 2 mps 759 mmHg 79%
    22:00 +8°C° 0 mm 2 mps 759 mmHg 80%
    23:00 +8°C° 0 mm 2 mps 758 mmHg 81%

    22 October, Monday

    Time Temperature Precipitation Wind Pressure Humidity
    00:00 +7°C° 0 mm 2 mps 758 mmHg 82%
    01:00 +7°C° 0 mm 2 mps 758 mmHg 82%
    02:00 +7°C° 0 mm 2 mps 758 mmHg 83%
    03:00 +7°C° 0 mm 2 mps 757 mmHg 84%
    04:00 +6°C° 0 mm 2 mps 757 mmHg 85%
    05:00 +6°C° 0 mm 2 mps 757 mmHg 85%
    06:00 +5°C° 0 mm 3 mps 757 mmHg 85%
    07:00 +5°C° 0 mm 3 mps 757 mmHg 85%
    08:00 +8°C° 0 mm 3 mps 757 mmHg 77%
    09:00 +9°C° 0 mm 3 mps 757 mmHg 69%
    10:00 +11°C° 0 mm 4 mps 757 mmHg 60%
    11:00 +10°C° 0 mm 4 mps 757 mmHg 61%
    12:00 +10°C° 0 mm 4 mps 756 mmHg 63%
    13:00 +10°C° 0 mm 4 mps 756 mmHg 64%
    14:00 +10°C° 0 mm 4 mps 756 mmHg 68%
    15:00 +10°C° 0 mm 3 mps 756 mmHg 72%
    16:00 +9°C° 0 mm 3 mps 756 mmHg 76%
    17:00 +9°C° 0 mm 3 mps 756 mmHg 78%
    18:00 +8°C° 0 mm 3 mps 757 mmHg 80%
    19:00 +7°C° 0 mm 3 mps 757 mmHg 82%
    20:00 +7°C° 0 mm 3 mps 757 mmHg 80%
    21:00 +5°C° 0 mm 3 mps 757 mmHg 78%
    22:00 +5°C° 0 mm 3 mps 757 mmHg 76%
    23:00 +5°C° 0 mm 3 mps 757 mmHg 76%
    Show more